EDT,Max TemperatureF,Mean TemperatureF,Min TemperatureF,Max Dew PointF,MeanDew PointF,Min DewpointF,Max Humidity, Mean Humidity, Min Humidity, Max Sea Level PressureIn, Mean Sea Level PressureIn, Min Sea Level PressureIn, Max VisibilityMiles, Mean VisibilityMiles, Min VisibilityMiles, Max Wind SpeedMPH, Mean Wind SpeedMPH, Max Gust SpeedMPH,PrecipitationIn, CloudCover, Events, WindDirDegrees
2011-10-1,69,61,52,60,45,39,93,65,37,29.98,29.87,29.78,10,10,10,17,7,26,0.00,1,,331
2011-10-2,67,57,46,49,44,41,93,68,42,30.06,30.00,29.97,10,10,10,14,4,20,0.00,1,,325
2011-10-3,73,59,44,48,42,36,93,60,27,30.16,30.10,30.06,10,10,10,12,3,18,0.00,0,,317
2011-10-4,74,61,47,54,49,44,93,67,41,30.23,30.18,30.15,10,10,10,16,5,28,0.00,0,,9
2011-10-5,78,64,49,58,53,48,100,73,46,30.26,30.21,30.17,10,10,9,10,3,15,0.00,0,,5
2011-10-6,79,66,53,56,53,51,100,70,40,30.30,30.26,30.21,10,10,8,16,7,32,0.00,0,,33
2011-10-7,79,68,56,61,56,52,84,63,42,30.38,30.34,30.29,10,10,10,16,9,22,0.00,1,,53
2011-10-8,79,69,58,58,54,47,86,59,32,30.42,30.36,30.32,10,10,10,18,10,22,0.00,2,,39
2011-10-9,81,72,63,64,61,57,84,69,54,30.31,30.26,30.18,10,10,9,25,16,36,T,3,Rain,56
2011-10-10,72,70,67,70,67,63,97,88,78,30.15,30.05,29.97,10,9,4,20,14,26,0.16,7,Rain,52
2011-10-11,74,70,65,70,65,59,100,90,79,29.96,29.90,29.85,10,8,1,21,11,26,0.79,8,Rain,55
2011-10-12,81,74,66,74,69,66,100,90,79,29.86,29.81,29.75,10,6,0,16,6,20,T,5,Fog,180
2011-10-13,80,74,68,73,70,67,100,84,67,29.78,29.73,29.65,10,8,0,20,10,25,T,5,Fog,208
2011-10-14,78,69,60,63,57,46,97,67,36,29.89,29.73,29.66,10,10,10,17,8,25,0.06,2,Rain,266
2011-10-15,83,70,57,55,49,43,72,48,24,30.03,29.96,29.92,10,10,10,16,6,25,0.00,0,,272
2011-10-16,75,62,49,57,49,41,93,62,31,30.17,30.09,30.04,10,10,10,14,6,17,0.00,0,,212
2011-10-17,81,69,56,66,60,54,87,68,48,30.04,29.97,29.90,10,10,10,15,8,,0.00,0,,225
2011-10-18,80,69,57,72,64,57,100,81,62,29.91,29.81,29.61,10,4,0,16,5,21,0.67,4,Fog-Rain,147
2011-10-19,80,67,54,73,70,43,94,78,61,29.65,29.46,29.36,10,7,1,32,12,38,0.50,7,Rain,184
2011-10-20,65,57,49,45,42,41,77,61,44,30.02,29.84,29.66,10,10,10,20,10,26,0.00,0,,257
2011-10-21,68,57,46,49,45,41,100,71,42,30.10,30.06,30.02,10,10,10,9,3,20,0.00,0,,279
2011-10-22,70,57,44,50,46,44,93,67,40,30.12,30.08,30.05,10,10,5,10,2,16,0.00,1,,14
2011-10-23,73,61,49,56,50,46,93,70,47,30.12,30.08,30.05,10,10,9,13,5,16,0.00,1,,27
2011-10-24,73,63,52,54,52,49,93,69,44,30.11,30.07,30.02,10,9,5,13,5,26,0.00,2,,14
2011-10-25,73,61,49,54,50,47,100,72,44,30.25,30.19,30.12,10,8,1,18,4,23,0.00,0,,19
2011-10-26,74,59,44,60,50,45,100,77,53,30.19,30.12,29.99,10,5,0,16,6,21,0.00,0,Fog,212
2011-10-27,81,70,58,58,55,52,87,63,39,29.97,29.90,29.83,10,10,10,20,7,26,0.00,0,,255
2011-10-28,66,59,52,56,52,46,100,82,63,30.04,29.99,29.91,10,9,2,18,9,24,0.00,5,,39
2011-10-29,59,51,43,49,45,32,100,78,55,30.13,29.93,29.86,10,7,1,18,8,31,0.00,6,,350
2011-10-30,61,47,33,41,34,31,96,66,36,30.33,30.27,30.14,10,10,9,14,5,18,0.00,0,,29
2011-10-31,67,56,44,55,45,34,96,80,63,30.32,30.20,30.10,10,10,10,20,10,24,0.01,6,Rain,25